Location: Mountain Grove
(34.0887°N, 86.6172°W)
Time: 20:42:29
(UTC+00:00)

Lacrosse 5 rocket - Pass Details

Date: 14 July 2020
Orbit: 464 x 632 km, 57.0° (Epoch: 08 August)

Event Time Altitude Azimuth Distance (km) Brightness Sun altitude
Rises 04:34:18 0° 329° (NNW) 2,680 5.9 -31.3°
Reaches altitude 10° 04:36:43 10° 338° (NNW) 1,755 4.8 -31.5°
Enters shadow 04:38:13 20° 352° (N) 1,242 3.8 -31.6°
